Weather Roundup
Issued by NWS

Home | Current Version | Previous Version | Graphics & Text | Print | Product List | Glossary On
Versions: 1 2 3 4 5 6 7 8 9 10 11 12 13 14 15 16 17 18 19 20 21 22 23 24 25 26 27 28 29 30 31 32 33 34 35 36 37 38 39 40 41 42 43 44 45 46 47 48 49 50
000
NZUS93 KARX 240210
HRRWXR

CURRENT HOURLY OBSERVATIONS ACROSS
MUCH OF THE UPPER MISSISSIPPI VALLEY
NATIONAL WEATHER SERVICE LA CROSSE WI
800 PM CST TUE JAN 23 2018


...SOUTHEAST MINNESOTA...


CITY           SKY/WX    TMP DP  RH WIND       PRES   REMARKS
ROCHESTER      FAIR      11  10  96 W8        30.14R WCI  -1
ROCHESTER/MAYO FAIR      19  15  85 CALM      30.15R
WINONA         FAIR      18  16  93 CALM      30.17R
AUSTIN         NOT AVBL
ALBERT LEA     FAIR      18  14  86 CALM      30.15S
DODGE CENTER   FAIR      10   7  85 SW5       30.13S WCI   2
PRESTON        FAIR      13  11  88 W6        30.14S WCI   4
OWATONNA       MOCLDY    14  10  85 CALM      30.14S
FARIBAULT      CLOUDY    18  12  79 CALM      30.15S
$$

...ELSEWHERE IN MINNESOTA...


CITY           SKY/WX    TMP DP  RH WIND       PRES   REMARKS
MINNEAPOLIS    MOCLDY    21  16  81 VRB3      30.16R
INTNL FALLS    CLOUDY     2  -6  69 E3        30.13R
DULUTH         FAIR      16   4  59 N6        30.11R WCI   7
RED WING       FAIR      14   9  79 CALM      30.16S
REDWOOD FALLS  CLOUDY    22  18  85 W3        30.16F
MANKATO        MOCLDY    22  18  85 W6        30.16S WCI  14
WORTHINGTON    CLOUDY    22  20  92 W12       30.15R WCI  10
FAIRMONT       NOT AVBL
$$

...SOUTHWEST WISCONSIN...


CITY           SKY/WX    TMP DP  RH WIND       PRES   REMARKS
LA CROSSE      CLOUDY    24  18  77 NW8       30.18R WCI  15
PRAIRIE DU CHI CLOUDY    24  18  76 W7        30.18R WCI  16
BOSCOBEL       CLOUDY    26  20  77 NW6       30.17R WCI  19
LONE ROCK      CLOUDY    26  21  81 N8        30.15R WCI  18
PLATTEVILLE    CLOUDY    25  24  95 NW8       30.14R WCI  16
FORT MC COY    CLOUDY    22  19  91 NW6       30.16R WCI  14
CAMP DOUGLAS   CLOUDY    23  19  86 NW8       30.13R WCI  14
MAUSTON-NEW LI CLOUDY    24  20  85 NW7       30.13R WCI  16
VIROQUA        CLOUDY    21  20  96 N8        30.12R WCI  12
WIS DELLS      CLOUDY    24  20  87 NW3       30.12R
$$

...ELSEWHERE IN WISCONSIN...


CITY           SKY/WX    TMP DP  RH WIND       PRES   REMARKS
MILWAUKEE      CLOUDY    30  21  69 NW9       30.09R WCI  22
MADISON        CLOUDY    25  21  85 NW7       30.11S WCI  17
GREEN BAY      CLOUDY    25  18  74 NW9       30.10R WCI  15
EAU CLAIRE     CLOUDY    18  13  80 CALM      30.15R
BLACK RVR FLS  CLOUDY    22  17  81 W5        30.16R WCI  15
MEDFORD        CLOUDY    18  15  85 N5        30.08S WCI  11
WAUSAU         CLOUDY    21  16  81 N7        30.08R WCI  12
WIS RAPIDS     CLOUDY    23  16  74 NW7       30.12R WCI  15
MARSHFIELD     CLOUDY    21  16  81 NW8       30.09R WCI  11
RICE LAKE      FAIR      12  10  89 CALM      30.16S
$$

...NORTHEAST IOWA...


CITY           SKY/WX    TMP DP  RH WIND       PRES   REMARKS
WATERLOO       FAIR      20  16  84 NW8       30.19R WCI  10
DUBUQUE        CLOUDY    23  18  81 NW10      30.14R WCI  12
DECORAH        CLOUDY    21  19  93 NW12      30.15R WCI   9
MASON CITY     CLOUDY    16  13  88 W5        30.17S WCI   9
CHARLES CITY   FAIR      19  19 100 NW6       30.17S WCI  11
OELWEIN        CLOUDY    23  23 100 NW12      30.17S WCI  12
$$

...ELSEWHERE IN IOWA...


CITY           SKY/WX    TMP DP  RH WIND       PRES   REMARKS
DES MOINES     CLOUDY    26  20  77 NW12      30.21S WCI  16
IOWA CITY      CLOUDY    28  18  66 NW14      30.20R WCI  17
FORT DODGE     CLOUDY    23  19  85 NW5       30.18F WCI  17
MARSHALLTOWN   CLOUDY    25  20  81 NW14      30.18S WCI  13
CEDAR RAPIDS   CLOUDY    25  19  78 N13       30.17R WCI  14
$$

...NORTHERN ILLINOIS...


CITY           SKY/WX    TMP DP  RH WIND       PRES   REMARKS
CHICAGO-OHARE  CLOUDY    30  22  72 NW12      30.11R WCI  20
CHICAGO-MIDWAY CLOUDY    30  23  75 NW10      30.11R WCI  21
MOLINE         CLOUDY    28  21  75 NW12      30.17R WCI  18
ROCKFORD       CLOUDY    28  22  78 N7        30.13S WCI  21
PEORIA         CLOUDY    30  22  72 NW7       30.17R WCI  23
$$

NOTE: "FAIR" INDICATES FEW OR NO CLOUDS BELOW 12,000 FEET WITH NO
SIGNIFICANT WEATHER AND/OR OBSTRUCTIONS TO VISIBILITY. WIND
SPEEDS ARE IN MILES-PER-HOUR.




USA.gov is the U.S. government's official web portal to all federal, state and local government web resources and services.